Regional Weather Roundup
Issued by NWS

Home | Current Version | Previous Version | Graphics & Text | Print | Product List | Glossary On
Versions: 1 2 3 4 5 6 7 8 9 10 11 12 13 14 15 16 17 18 19 20 21 22 23 24 25 26 27 28 29 30 31 32 33 34 35 36 37 38 39 40 41 42 43 44 45 46 47 48 49 50
000
ASUS43 KDTX 071701
RWRMI
MICHIGAN HOURLY REGIONAL WEATHER ROUNDUP
NATIONAL WEATHER SERVICE DETROIT/PONTIAC MI
1200 PM EST SUN FEB 07 2016

NOTE: "FAIR" INDICATES FEW OR NO CLOUDS BELOW 12,000 FEET WITH NO
SIGNIFICANT WEATHER AND/OR OBSTRUCTION TO VISIBILITY.

MIZ047>049-052>055-059>063-066>070-074>076-081>083-071800-
SOUTHEAST LOWER MICHIGAN

CITY           SKY/WX    TMP DP  RH WIND       PRES   REMARKS
ADRIAN         PTSUNNY   40  29  64 SW20      29.91F WCI  30
ALMA           CLOUDY    40  32  74 S9        29.79F WCI  33
ANN ARBOR      CLOUDY    40  29  64 SW15G21   29.89F WCI  32
BAD AXE        CLOUDY    39  31  73 S14       29.85F WCI  31
CARO           CLOUDY    42  30  61 S10       29.83F
DETROIT CITY   MOSUNNY   44  29  55 S9        29.91F
DETROIT        PTSUNNY   43  29  57 S12       29.91F
FLINT          CLOUDY    45  28  51 S14       29.85F
GROSSE ILE     PTSUNNY   41  34  75 S13       29.91F
HILLSDALE      MOSUNNY   40  29  64 S9G17     29.86F WCI  34
HOWELL         CLOUDY    44  29  57 S10G24    29.84F

CITY           SKY/WX    TMP DP  RH WIND       PRES   REMARKS
JACKSON        MOSUNNY   43  28  55 S14G24    29.84F
LAMBERTVILLE   CLOUDY    44  30  57 S9G17     29.92F
LANSING        CLOUDY    41  29  62 S16       29.82F
LAPEER         PTSUNNY   42  29  61 S14       29.86F
MASON          CLOUDY    42  30  62 S7        29.83F
MONROE         MOSUNNY   43  29  58 SW12      29.91F
MT. CLEMENS    PTSUNNY   41  31  68 S10       29.88F
PONTIAC        CLOUDY    41  28  60 S10       29.86F
PORT HOPE        N/A     38  29  70 S9        29.83F WCI  31
PORT HURON     CLOUDY    39  30  70 S9        29.91F WCI  33
TRI CITIES     CLOUDY    41  30  65 S14       29.81F
MIDLAND        PTSUNNY   40  29  65 S7        29.79F WCI  35
TROY           PTSUNNY   42  28  56 S13       29.90F
SAGINAW HB     CLOUDY    41  32  70 S10G18    29.81F
$$
MIZ043>046-050>051-056>058-064>065-071>073-077>080-071800-
SOUTHWEST LOWER MICHIGAN

CITY           SKY/WX    TMP DP  RH WIND       PRES   REMARKS
BATTLE CREEK   MOSUNNY   41  30  65 S17       29.82F
BENTON HARBOR  CLOUDY    46  29  51 SW16G26   29.80F
BIG RAPIDS     CLOUDY    40  30  66 S12G25    29.72F WCI  33
COLDWATER      CLOUDY    43  30  59 SW9G16    29.85F
FREMONT        PTSUNNY   40  31  70 SW15G22   29.75S WCI  32
HOLLAND        CLOUDY    42  30  62 SW22G31   29.78F
GRAND RAPIDS   CLOUDY    42  30  62 SW10      29.78F
IONIA          FAIR      40  29  65 S13G18    29.78F WCI  33
KALAMAZOO      MOSUNNY   44  30  57 S16       29.82F
LUDINGTON      CLOUDY    39  32  75 S20G25    29.70F WCI  30
MARSHALL       CLOUDY    44  29  57 S13G23    29.83F
MOUNT PLEASANT CLOUDY    40  30  68 S7        29.76F WCI  35
MUSKEGON       CLOUDY    41  32  70 S16G28    29.76S
SOUTH HAVEN    PTSUNNY   44  29  56 SW14G21   29.79F
$$
MIZ016>042-071800-
NORTHERN LOWER MICHIGAN

CITY           SKY/WX    TMP DP  RH WIND       PRES   REMARKS
ALPENA         CLOUDY    35  29  78 SE10      29.78F WCI  27
BEAVER ISLAND  CLOUDY    35  33  92 SE9       29.65F FOG     WCI  28
BELLAIRE       CLOUDY    37  32  81 S8        29.69F WCI  31
CADILLAC       CLOUDY    37  30  75 S10       29.68F WCI  30
CHARLEVOIX     CLOUDY    37  32  84 S12G17    29.70F WCI  29
FRANKFORT      MOSUNNY   40  32  72 S16G26    29.67F WCI  32
GAYLORD        CLOUDY    35  29  78 S13       29.69F WCI  26
GRAYLING       CLOUDY    36  29  78 S7        29.72S WCI  30
HARBOR SPRINGS LGT RAIN  37  32  83 S9        29.69F WCI  30
HOUGHTON LAKE  CLOUDY    37  28  70 S10       29.73F WCI  30
MANISTEE       MOSUNNY   43  28  56 S17       29.69F
OSCODA         CLOUDY    37  29  74 S10       29.80F WCI  29
PELLSTON       LGT SNOW  36  30  79 SE8       29.69F WCI  30
ROGERS CITY    CLOUDY    34  28  79 S15G21    29.75F WCI  24
TRAVERSE CITY  PTSUNNY   42  30  62 S8G17     29.67F
$$
MIZ007>008-015-071800-
EASTERN UPPER MICHIGAN

CITY           SKY/WX    TMP DP  RH WIND       PRES   REMARKS
KINROSS        CLOUDY    34  34 100 SE18      29.69F VSB 3/4 WCI  23
MACKINAC ISLAN LGT SNOW  34  30  84 SE9       29.69F WCI  27
NEWBERRY       LGT SNOW  33  32  97 S13G20    29.62F WCI  23
S. S. MARIE    LGT SNOW  34  31  88 SE13G22   29.68F VSB 3/4 WCI  25
$$
MIZ004>006-011>014-085-071800-
CENTRAL UPPER MICHIGAN

CITY           SKY/WX    TMP DP  RH WIND       PRES   REMARKS
MANISTIQUE     CLOUDY    37  33  87 S10G16    29.61F WCI  29
ESCANABA       CLOUDY    36  32  87 S9        29.59F WCI  29
MENOMINEE      PTSUNNY   39  28  65 SW12G17   29.59F WCI  32
SAWYER-GWINN   CLOUDY    30  28  93 S13       29.55S FOG     WCI  20
$$
MIZ001>003-009>011-084-071800-
WESTERN UPPER MICHIGAN

CITY           SKY/WX    TMP DP  RH WIND       PRES   REMARKS
IRON MOUNTAIN  CLOUDY    32  29  88 S6        29.54F FOG     WCI  26
HOUGHTON       CLOUDY    31  29  92 S6        29.50F FOG     WCI  25
COPPER HARBOR    N/A     33  31  92 SW7       29.53S WCI  27
IRONWOOD       CLOUDY    34  30  86 SW12      29.46R WCI  25
$$

ABBREVIATIONS USED IN REMARKS
   TC - TEMPERATURE IN CELSIUS
  WCI - WIND CHILL INDEX
   HX - HEAT INDEX
  VSB - VISIBILITY




USA.gov is the U.S. government's official web portal to all federal, state and local government web resources and services.